Location: Newark
(44.2003°N, 3.2583°E)
Time: 17:01:43
(UTC+00:00)

Altair - Pass Details

Date: 23 October 2019
Orbit: 1502 x 1682 km, 47.2° (Epoch: 13 November)

Event Time Altitude Azimuth Distance (km) Brightness Sun altitude
Rises 17:23:47 0° 293° (WNW) 4,867 11.2 -6.6°
Reaches altitude 10° 17:27:25 10° 284° (WNW) 3,900 10.9 -7.3°
Maximum altitude 17:35:33 30° 229° (SW) 2,694 9.5 -8.7°
Drops below altitude 10° 17:43:47 10° 174° (S) 3,934 9.6 -10.2°
Sets 17:47:29 0° 163° (SSE) 4,916 10.0 -10.9°
